SCP
0 0 0 0 0 0 0 0 0 0 0 0 0 0 0 0 0 0 0 0 0 0
0 0 0 0 0 0 0 0 0 0 0 0 0 0 0 0 0 0 0 0 0 0
0 0 0 0 0 0 0 0 0 0 0 0 0 0 0 0 0 0 0 0 0 0
0 0 0 0 0 0 0 0 0 0 0 0 0 0 0 0 0 0 0 0 0 0
0 0 0 0 0 0 0 0 0 0 0 0 0 0 0 0 0 0 0 0 0 0
0 0 0 0 0 0 0 0 0 0 0 0 0 0 0 0 0 0 0 0 0 0
0 0 0 0 0 0 0 0 0 0 0 0 0 0 0 0 0 0 0 0 0 0
0 0 0 0 0 0 0 0 0 0 0 0 0 0 0 0 0 0 0 0 0 0
0 0 0 0 0 0 0 0 0 0 0 0 0 0 0 0 0 0 0 0 0 0
0 0 0 0 0 0 0 0 0 0 0 0 0 0 0 0 0 0 0 0 0 0
0 0 0 0 0 0 0 0 0 0 0 0 0 0 0 0 0 0 0 0 0 0
0 0 0 0 0 0 0 0 0 0 0 0 0 0 0 0 0 0 0 0 0 0
0 0 0 0 0 0 0 0 0 0 0 0 0 0 0 0 0 0 0 0 0 0
0 0 0 0 0 0 0 0 0 0 0 0 0 0 0 0 0 0 0 0 0 0
Wind_Speed_500mb
68 70 65 65 64 60 64 66 68 65 73 65 69 67 68 66 68 69 66 66 61 53
68 67 66 59 56 61 62 67 69 69 74 70 68 66 66 69 71 73 69 66 60 53
63 64 64 59 60 62 63 67 69 75 74 71 71 71 70 74 73 73 70 63 58 53
57 60 59 57 61 63 66 71 78 81 84 81 78 76 76 78 78 75 69 64 57 49
54 57 59 60 65 62 63 70 77 83 83 87 83 80 81 82 77 74 70 65 57 48
56 61 61 62 65 65 70 71 73 80 84 88 83 83 83 81 78 73 67 61 53 45
63 61 60 60 65 66 67 68 70 76 78 87 84 85 86 83 77 72 63 56 49 43
64 63 61 63 66 66 66 67 69 76 82 86 86 88 87 84 77 70 64 56 50 34
68 69 65 63 66 69 66 65 68 72 80 88 90 87 84 75 72 67 62 62 45 40
67 68 67 61 67 70 67 64 67 70 78 86 86 89 83 78 71 66 64 55 44 28
62 65 66 66 66 68 68 64 65 70 76 84 88 85 79 74 69 67 65 48 34 35
54 61 63 63 66 66 67 64 63 68 74 83 81 83 81 79 73 69 66 47 37 48
43 50 52 53 59 59 61 59 60 65 69 69 76 77 81 79 75 73 65 52 60 48
36 39 42 47 52 51 54 51 49 54 53 62 71 77 77 74 73 65 65 67 64 60
Wind_Direction_500mb
233 235 235 240 233 230 234 229 232 222 222 218 228 232 236 222 219 218 217 219 224 232
233 234 236 235 230 227 232 229 226 228 227 228 227 228 221 219 217 213 214 220 224 223
234 235 235 233 230 228 229 231 228 232 224 226 223 221 217 215 213 215 217 217 217 213
233 236 235 230 227 231 232 227 233 226 225 222 220 221 220 215 213 211 212 210 208 208
235 237 235 231 230 231 228 228 234 232 227 221 218 219 217 213 211 209 207 205 202 202
237 237 235 231 229 230 233 237 240 230 230 225 218 216 213 211 209 207 206 206 201 191
241 241 240 235 232 232 235 238 237 234 233 227 218 215 212 207 206 204 201 197 190 184
243 240 241 235 234 235 237 240 237 234 231 224 218 216 214 208 205 203 195 188 187 190
247 243 243 235 233 235 238 239 240 237 232 225 217 215 214 211 205 201 197 190 190 196
248 246 245 242 238 238 238 242 243 238 231 224 219 213 212 209 207 202 196 196 198 217
248 246 243 242 240 243 241 240 244 240 233 225 216 214 211 209 207 203 198 202 216 259
246 244 241 239 240 242 245 242 244 242 234 225 213 213 213 209 207 202 205 212 244 257
242 242 241 241 241 241 243 243 243 242 235 221 210 212 217 214 210 205 212 233 244 258
227 228 227 232 235 237 241 243 243 242 233 210 207 213 220 221 215 223 227 233 245 260
Wind_Speed_850mb
68 70 65 65 64 60 64 66 68 65 73 65 69 67 68 66 68 69 66 66 61 53
68 67 66 59 56 61 62 67 69 69 74 70 68 66 66 69 71 73 69 66 60 53
63 64 64 59 60 62 63 67 69 75 74 71 71 71 70 74 73 73 70 63 58 53
57 60 59 57 61 63 66 71 78 81 84 81 78 76 76 78 78 75 69 64 57 49
54 57 59 60 65 62 63 70 77 83 83 87 83 80 81 82 77 74 70 65 57 48
56 61 61 62 65 65 70 71 73 80 84 88 83 83 83 81 78 73 67 61 53 45
63 61 60 60 65 66 67 68 70 76 78 87 84 85 86 83 77 72 63 56 49 43
64 63 61 63 66 66 66 67 69 76 82 86 86 88 87 84 77 70 64 56 50 34
68 69 65 63 66 69 66 65 68 72 80 88 90 87 84 75 72 67 62 62 45 40
67 68 67 61 67 70 67 64 67 70 78 86 86 89 83 78 71 66 64 55 44 28
62 65 66 66 66 68 68 64 65 70 76 84 88 85 79 74 69 67 65 48 34 35
54 61 63 63 66 66 67 64 63 68 74 83 81 83 81 79 73 69 66 47 37 48
43 50 52 53 59 59 61 59 60 65 69 69 76 77 81 79 75 73 65 52 60 48
36 39 42 47 52 51 54 51 49 54 53 62 71 77 77 74 73 65 65 67 64 60
Wind_Direction_850mb
233 235 235 240 233 230 234 229 232 222 222 218 228 232 236 222 219 218 217 219 224 232
233 234 236 235 230 227 232 229 226 228 227 228 227 228 221 219 217 213 214 220 224 223
234 235 235 233 230 228 229 231 228 232 224 226 223 221 217 215 213 215 217 217 217 213
233 236 235 230 227 231 232 227 233 226 225 222 220 221 220 215 213 211 212 210 208 208
235 237 235 231 230 231 228 228 234 232 227 221 218 219 217 213 211 209 207 205 202 202
237 237 235 231 229 230 233 237 240 230 230 225 218 216 213 211 209 207 206 206 201 191
241 241 240 235 232 232 235 238 237 234 233 227 218 215 212 207 206 204 201 197 190 184
243 240 241 235 234 235 237 240 237 234 231 224 218 216 214 208 205 203 195 188 187 190
247 243 243 235 233 235 238 239 240 237 232 225 217 215 214 211 205 201 197 190 190 196
248 246 245 242 238 238 238 242 243 238 231 224 219 213 212 209 207 202 196 196 198 217
248 246 243 242 240 243 241 240 244 240 233 225 216 214 211 209 207 203 198 202 216 259
246 244 241 239 240 242 245 242 244 242 234 225 213 213 213 209 207 202 205 212 244 257
242 242 241 241 241 241 243 243 243 242 235 221 210 212 217 214 210 205 212 233 244 258
227 228 227 232 235 237 241 243 243 242 233 210 207 213 220 221 215 223 227 233 245 260